FALCON 9 DEB (52883 NORAD) Tracking and Keplerian Element Data

This shows tracking and keplerian element data for the satellite.

Feedback or suggestion? Click here.




ElementValue
Catalog52883
NameFALCON 9 DEB
Epoch Orbit325
Epoch Day188.79240019
Epoch Year2022
RAAN300.6387
Inclination53.2105
Eccentricity0.0007992
Argument of Perigee106.1842
Mean Anonmoly254.0087
Mean Motion16.40944681
Decay Rate0.07116221
L11 52883U 22062BF 22188.79240019 .07116221 12340-4 45491-3 0 9991
L22 52883 53.2105 300.6387 0007992 106.1842 254.0087 16.40944681 3259

Live tracking and technical data element details for FALCON 9 DEB (NORAD 52883). FALCON 9 DEB can be tracked NOW for your location showing map with azimuth and elevation plus other details from your city location.

Track the satellite on the map from your city or location and see movement details for azimuth, elevation, latitude, longitude, range, height, and movement on the map or in text.







IsCatalogInMostPopularTable: catalog: 52883, numindb: 8
Update: records affected: 1



GetName: 52883 FALCON 9 DEB

Hit Count: updated at: Thu, 06 Oct 2022 04:01:52 GMT